San Carlos, CA

11:52 AM PST on December 16, 2017 (GMT -0800)
San Carlos

Weather History for KSQL - February, 2013

Change the Weather History Date:

Sunday, February 3, 2013

  Actual Average Record
Temperature  
Mean Temperature 52 °F -  
Max Temperature 57 °F 60 °F 91 °F (2016)
Min Temperature 44 °F 39 °F 28 °F (1979)
Degree Days  
Heating Degree Days 14    
Growing Degree Days 2 (Base 50)    
Moisture  
Dew Point 42 °F    
Average Humidity 78    
Maximum Humidity 93    
Minimum Humidity 62    
Precipitation  
Precipitation 0.00 in - - ()
Sea Level Pressure  
Sea Level Pressure 30.23 in    
Wind  
Wind Speed 5 mph (WNW)    
Max Wind Speed 9 mph    
Max Gust Speed -    
Visibility 10 miles    
Events      
Averages and records for this station are not official NWS values.
T = Trace of Precipitation, MM = Missing Value Source: NWS Daily Summary

Daily Weather History Graph

Daily Weather History Graph

Search for Another Location

Airport or City:

Trip Planner

Search our weather history database for the weather conditions in past years. The results will help you decide how hot, cold, wet, or windy it might be!

Date:

Astronomy

Feb. 03, 2013 Rise Set
Actual Time 7:10 AM PST 5:35 PM PST
Civil Twilight 6:43 AM PST 6:03 PM PST
Nautical Twilight 6:11 AM PST 6:34 PM PST
Astronomical Twilight 5:41 AM PST 7:05 PM PST
Moon 12:43 AM PST (2/3) 11:17 AM PST (2/3)
Length of Visible Light 11h 20m
Length of Day
10h 25m
Waning Gibbous, 47% of the Moon is Illuminated
Feb 3
Waning Gibbous
Feb 9
New
Feb 17
First Quarter
Feb 25
Full
Mar 4
Last Quarter

Hourly Weather History & Observations

Time (PST) Temp. Windchill Dew Point Humidity Pressure Visibility Wind Dir Wind Speed Gust Speed Precip Events Conditions
12:15 AM 48.2 °F - 42.8 °F 82% 30.27 in 10.0 mi WNW 6.9 mph - N/A   Clear
12:35 AM 48.2 °F - 42.8 °F 82% 30.27 in 10.0 mi West 6.9 mph - N/A   Clear
12:55 AM 48.2 °F - 42.8 °F 82% 30.27 in 10.0 mi West 5.8 mph - N/A   Clear
1:15 AM 48.2 °F - 42.8 °F 82% 30.27 in 10.0 mi West 4.6 mph - N/A   Scattered Clouds
1:35 AM 48.2 °F - 41.0 °F 76% 30.26 in 10.0 mi West 5.8 mph - N/A   Scattered Clouds
1:55 AM 48.2 °F - 41.0 °F 76% 30.26 in 10.0 mi WNW 5.8 mph - N/A   Clear
2:15 AM 48.2 °F - 41.0 °F 76% 30.27 in 10.0 mi West 4.6 mph - N/A   Clear
2:35 AM 48.2 °F - 41.0 °F 76% 30.27 in 10.0 mi West 6.9 mph - N/A   Clear
2:55 AM 48.2 °F - 41.0 °F 76% 30.27 in 10.0 mi WNW 6.9 mph - N/A   Clear
3:15 AM 48.2 °F - 41.0 °F 76% 30.26 in 10.0 mi WNW 6.9 mph - N/A   Clear
3:35 AM 48.2 °F - 41.0 °F 76% 30.26 in 10.0 mi WNW 6.9 mph - N/A   Clear
4:15 AM 48.2 °F - 41.0 °F 76% 30.26 in 10.0 mi WNW 8.1 mph - N/A   Clear
4:35 AM 48.2 °F - 41.0 °F 76% 30.25 in 10.0 mi West 6.9 mph - N/A   Clear
4:55 AM 46.4 °F 44.3 °F 41.0 °F 81% 30.25 in 10.0 mi West 4.6 mph - N/A   Clear
5:15 AM 46.4 °F 43.5 °F 41.0 °F 81% 30.25 in 10.0 mi WNW 5.8 mph - N/A   Mostly Cloudy
5:35 AM 46.4 °F - 41.0 °F 81% 30.25 in 10.0 mi Calm Calm - N/A   Overcast
5:55 AM 48.2 °F - 42.8 °F 82% 30.25 in 10.0 mi Calm Calm - N/A   Overcast
6:15 AM 48.2 °F - 42.8 °F 82% 30.26 in 10.0 mi Calm Calm - N/A   Overcast
6:35 AM 48.2 °F - 41.0 °F 76% 30.26 in 10.0 mi WNW 4.6 mph - N/A   Overcast
6:47 AM 48.2 °F - 41.0 °F 76% 30.26 in 10.0 mi West 6.9 mph - N/A   Mostly Cloudy
6:55 AM 50.0 °F - 39.2 °F 66% 30.26 in 10.0 mi West 4.6 mph - N/A   Overcast
7:47 AM 48.2 °F - 39.2 °F 71% 30.26 in 10.0 mi SW 3.5 mph - N/A   Mostly Cloudy
8:47 AM 50.0 °F - 41.0 °F 71% 30.27 in 10.0 mi West 4.6 mph - N/A   Mostly Cloudy
9:47 AM 51.8 °F - - N/A% 30.25 in 10.0 mi NW 3.5 mph - N/A   Mostly Cloudy
10:54 AM 53.6 °F - 41.0 °F 62% 30.27 in 10.0 mi Calm Calm - N/A   Mostly Cloudy
11:49 AM 53.6 °F - 42.8 °F 67% 30.23 in 10.0 mi NE 6.9 mph - N/A   Partly Cloudy
12:51 PM 53.6 °F - 42.8 °F 67% 30.21 in 10.0 mi NE 6.9 mph - N/A   Partly Cloudy
1:49 PM 55.4 °F - 44.6 °F 67% 30.19 in 10.0 mi North 9.2 mph - N/A   Partly Cloudy
3:47 PM 57.2 °F - 44.6 °F 63% 30.17 in 10.0 mi North 6.9 mph - N/A   Partly Cloudy
4:54 PM 57.2 °F - 44.6 °F 63% 30.16 in 10.0 mi NW 5.8 mph - N/A   Partly Cloudy
5:54 PM 53.6 °F - 44.6 °F 72% 30.17 in 10.0 mi West 5.8 mph - N/A   Partly Cloudy
6:50 PM 50.0 °F - 44.6 °F 82% 30.17 in 10.0 mi NW 4.6 mph - N/A   Clear
7:50 PM 50.0 °F - 44.6 °F 82% 30.18 in 10.0 mi Calm Calm - N/A   Clear
8:47 PM 48.2 °F - 44.6 °F 87% 30.19 in 10.0 mi Calm Calm - N/A   Clear
9:15 PM 48.2 °F - 42.8 °F 82% 30.18 in 10.0 mi Calm Calm - N/A   Clear
9:35 PM 46.4 °F - 42.8 °F 87% 30.18 in 10.0 mi Calm Calm - N/A   Clear
9:55 PM 46.4 °F - 42.8 °F 87% 30.18 in 10.0 mi Calm Calm - N/A   Clear
10:15 PM 46.4 °F - 44.6 °F 93% 30.18 in 10.0 mi Calm Calm - N/A   Clear
10:35 PM 46.4 °F - 44.6 °F 93% 30.18 in 10.0 mi Calm Calm - N/A   Clear
10:55 PM 46.4 °F - 42.8 °F 87% 30.19 in 10.0 mi Calm Calm - N/A   Clear
11:15 PM 46.4 °F - 42.8 °F 87% 30.19 in 10.0 mi Calm Calm - N/A   Clear
11:35 PM 46.4 °F - 41.0 °F 81% 30.19 in 10.0 mi Calm Calm - N/A   Clear
11:55 PM 44.6 °F - 41.0 °F 87% 30.18 in 10.0 mi Calm Calm - N/A   Clear